User: anonymous   Login
Location: Fauquembergues
(50.6005°N, 2.0987°E)
Time: 08:53:01
(UTC+00:00)
Language:

Cosmos 2233 Rocket - Orbit

View from above orbital plane
View from above orbital plane
View from above satellite
View from above satellite

Ground track
Ground track

The orbit data is extracted from the following two-line orbital elements,

1 22488U 93008B   20272.53680045 +.00000170 +00000-0 +15476-3 0  9992
2 22488 082.9389 265.8757 0026850 103.4621 045.9144 13.77716810389113
Epoch (UTC): 28 September 2020 12:52:59
Eccentricity: 0.0026850
inclination: 82.9389°
perigee height: 952 km
apogee height: 992 km
right ascension of ascending node: 265.8757°
argument of perigee: 103.4621°
revolutions per day: 13.77716810
mean anomaly at epoch: 45.9144°
orbit number at epoch: 38911

The dashed part of the orbit path shows where the satellite is in the earth's shadow,  

DLR